sat.trackr.live / text

‹ back to catalog

STARLINK-35638

NORAD 66169 · 2025-240Z

PAYLOAD ACTIVE UNKNOWN

§ Identity

Operator
Country
US
Launch date
2025-10-25
Launch site
AFWTR
Launch vehicle
Mass (kg)
RCS (m²)

Purposes: comms

External: N2YO · Heavens-Above · Gunter

§ Orbital elements

Epoch: 2026-05-25T02:07:21.802656Z

Period
94.11 min
Inclination
53.1576°
Eccentricity
0.0001035
Mean motion
15.30202134 rev/d
Perigee alt
474.5 km
Apogee alt
475.9 km
Semi-major
6,853.3 km
B*
6.0353e-4
RAAN
68.0605°
Arg perigee
78.8476°
Mean anomaly
281.2641°
Rev number
3,368

§ Raw data

STARLINK-356381 66169U 25240Z   26145.08844679  .00017559  00000+0  60353-3 0  99912 66169  53.1576  68.0605 0001035  78.8476 281.2641 15.30202134 33686

JSON: /api/v1/satellites/66169 · /tle

For live sub-satellite position, see the globe view (requires WebGL).

§ Visibility from observer

Set your observer location to see the next 7 days of passes ≥ 10°. The values pass through the URL so the page stays shareable.

No JS? Fill the form by hand. The geolocation button needs JavaScript.